Main page
METAR-TAF:

METAR-TAF

Airports :

Brownwood Regional Airport

Brownwood, Texas, United States

latitude: 31-48N, longitude: 098-57W, elevation: 1384 ft

Current weather observation

The report was made 26 minutes ago, at 23:35 UTC
Wind 16 mph from the South/Southeast with gusts up to 23 mph
Temperature 86°F
Humidity 59%
Pressure 29.74 in. Hg
Visibility: 10 miles
Few clouds at a height of 5000 ft

METAR: KBWD 222335Z AUTO 15014G20KT 10SM FEW050 30/21 A2974 RMK AO1

Time: 19:01 (00:01 UTC)


TAF: missing

Weather observations and forecasts of more than 4000 airports (METAR and TAF reports).

The available stations are represented by yellow and red dots on the map.

Hover mouse over dot to see the name of the station.

Then click to see weather observations and forecasts.

To change the map : click on the green buttons with a black cross to zoom in, on the green button with a dash to zoom out, or on the green arrows for adjacent maps.


METAR-TAF: